IT9NKT-WX Weather Reports


Display with metric or nautical units.
time (UTC)temp
F
wind
direction
speed
MPH
gust
MPH
rain 1hr
in
rain 24hr
in
rain mn
in
humidity
%
barometer
mb
20260505152004 67 95 2.0 8.0 0.00 0.00 0.00 70 1017.4
20260505151503 67 106 2.0 5.0 0.00 0.00 0.00 70 1017.7
20260505151004 67 98 4.0 10.0 0.00 0.00 0.00 69 1017.7
20260505150503 66 89 4.0 10.0 0.00 0.00 0.00 68 1017.5
20260505140504 68 93 3.0 8.0 0.00 0.00 0.00 65 1017.7
20260505130216 68 94 3.0 11.0 0.00 0.00 0.00 63 1017.8
20260505125003 69 95 3.0 10.0 0.00 0.00 0.00 61 1017.9
20260505124503 69 95 3.0 9.0 0.00 0.00 0.00 62 1017.9
20260505124003 69 113 2.0 10.0 0.00 0.00 0.00 61 1017.9
20260505123503 70 118 3.0 10.0 0.00 0.00 0.00 59 1018.1
20260505123003 70 95 3.0 9.0 0.00 0.00 0.00 62 1018.1
20260505122717 70 98 2.0 7.0 0.00 0.00 0.00 61 1018.1
20260505122004 69 97 2.0 8.0 0.00 0.00 0.00 63 1018.2
20260505121504 70 84 2.0 7.0 0.00 0.00 0.00 60 1018.2
20260505121004 68 77 2.0 4.0 0.00 0.00 0.00 63 1018.1
20260505120503 69 86 3.0 13.0 0.00 0.00 0.00 63 1018.2
20260505120004 69 99 3.0 13.0 0.00 0.00 0.00 64 1018.4
20260505115503 69 105 3.0 8.0 0.00 0.00 0.00 61 1018.4
20260505115003 68 110 3.0 8.0 0.00 0.00 0.00 64 1018.5
20260505114504 69 130 4.0 7.0 0.00 0.00 0.00 63 1018.5
20260505114004 69 138 4.0 11.0 0.00 0.00 0.00 61 1018.9
20260505113503 69 126 3.0 11.0 0.00 0.00 0.00 63 1018.6
20260505113004 69 105 3.0 10.0 0.00 0.00 0.00 63 1018.8
20260505112503 69 92 3.0 8.0 0.00 0.00 0.00 63 1018.7
20260505112004 69 91 2.0 8.0 0.00 0.00 0.00 64 1019.0
20260505111503 68 86 2.0 5.0 0.00 0.00 0.00 63 1019.0
20260505111004 69 109 3.0 9.0 0.00 0.00 0.00 61 1018.8
20260505110715 69 115 3.0 9.0 0.00 0.00 0.00 62 1019.0
20260505102004 68 103 2.0 8.0 0.00 0.00 0.00 62 1018.9
20260505101503 69 98 2.0 6.0 0.00 0.00 0.00 58 1019.0
20260505101004 69 115 2.0 9.0 0.00 0.00 0.00 59 1018.8
20260505100504 70 142 2.0 9.0 0.00 0.00 0.00 58 1018.8
20260505100213 69 132 3.0 9.0 0.00 0.00 0.00 60 1019.0
20260505095716 69 117 2.0 7.0 0.00 0.00 0.00 61 1018.8
20260505095004 69 125 2.0 6.0 0.00 0.00 0.00 60 1018.9
20260505094503 70 138 3.0 8.0 0.00 0.00 0.00 59 1019.1
20260505094003 70 142 3.0 8.0 0.00 0.00 0.00 61 1019.1
20260505093504 71 152 2.0 7.0 0.00 0.00 0.00 58 1019.1
20260505093004 71 150 1.0 4.0 0.00 0.00 0.00 59 1019.1
20260505092714 70 154 1.0 6.0 0.00 0.00 0.00 60 1018.9
20260505092004 69 117 2.0 6.0 0.00 0.00 0.00 62 1019.0
20260505091503 69 113 2.0 7.0 0.00 0.00 0.00 64 1018.9
20260505091218 69 110 2.0 7.0 0.00 0.00 0.00 63 1019.0
20260505090716 70 94 2.0 5.0 0.00 0.00 0.00 63 1018.8
20260505090004 70 114 2.0 8.0 0.00 0.00 0.00 63 1019.0
20260505085503 71 117 2.0 6.0 0.00 0.00 0.00 61 1019.0
20260505085003 71 110 2.0 6.0 0.00 0.00 0.00 59 1018.8
20260505084503 71 117 3.0 7.0 0.00 0.00 0.00 61 1019.1
20260505084004 71 142 2.0 7.0 0.00 0.00 0.00 59 1018.8
20260505083504 74 175 2.0 7.0 0.00 0.00 0.00 55 1018.5
20260505083003 74 177 2.0 7.0 0.00 0.00 0.00 55 1018.8
20260505082503 74 185 2.0 3.0 0.00 0.00 0.00 52 1018.4
20260505082003 73 184 2.0 4.0 0.00 0.00 0.00 51 1018.7
20260505081504 74 158 1.0 4.0 0.00 0.00 0.00 51 1018.7
20260505081213 74 154 1.0 3.0 0.00 0.00 0.00 51 1018.7
20260505080716 76 188 1.0 4.0 0.00 0.00 0.00 49 1018.5
20260505080004 74 205 1.0 4.0 0.00 0.00 0.00 51 1018.7
20260505075503 74 183 1.0 2.0 0.00 0.00 0.00 51 1018.7
20260505075004 74 193 1.0 2.0 0.00 0.00 0.00 52 1018.7
20260505074503 73 193 1.0 3.0 0.00 0.00 0.00 51 1018.6
20260505074004 71 193 2.0 3.0 0.00 0.00 0.00 53 1018.7
20260505073504 71 195 2.0 4.0 0.00 0.00 0.00 57 1018.8
20260505073004 71 193 2.0 4.0 0.00 0.00 0.00 56 1018.8
20260505072504 70 198 2.0 6.0 0.00 0.00 0.00 57 1018.9
20260505072004 70 200 2.0 6.0 0.00 0.00 0.00 58 1018.9
20260505071504 70 193 1.0 3.0 0.00 0.00 0.00 57 1019.0
20260505071004 69 197 1.0 3.0 0.00 0.00 0.00 59 1018.9
20260505070504 69 195 1.0 2.0 0.00 0.00 0.00 60 1018.9
20260505070004 69 188 1.0 2.0 0.00 0.00 0.00 60 1019.0
20260505065504 69 175 0.0 2.0 0.00 0.00 0.00 60 1019.0
20260505065003 69 176 0.0 1.0 0.00 0.00 0.00 61 1019.0
20260505064503 68 160 0.0 2.0 0.00 0.00 0.00 61 1018.9
20260505064003 68 182 1.0 2.0 0.00 0.00 0.00 61 1019.0
20260505063503 68 185 1.0 2.0 0.00 0.00 0.00 61 1018.9
20260505063004 68 165 0.0 2.0 0.00 0.00 0.00 61 1018.9
20260505062504 69 174 1.0 2.0 0.00 0.00 0.00 61 1018.8
20260505062003 69 165 0.0 2.0 0.00 0.00 0.00 60 1018.9
20260505061717 68 159 0.0 2.0 0.00 0.00 0.00 61 1018.9
20260505061004 65 180 0.0 1.0 0.00 0.00 0.00 66 1019.0
20260505060503 65 179 1.0 1.0 0.00 0.00 0.00 65 1019.0
20260505060003 66 170 0.0 1.0 0.00 0.00 0.00 65 1019.0
20260505055503 65 162 0.0 1.0 0.00 0.00 0.00 65 1019.0
20260505055217 65 167 0.0 1.0 0.00 0.00 0.00 66 1019.0
20260505054504 65 158 1.0 2.0 0.00 0.00 0.00 66 1018.9
20260505054004 65 151 1.0 2.0 0.00 0.00 0.00 67 1018.8
20260505053716 65 157 1.0 2.0 0.00 0.00 0.00 66 1018.9
20260505053004 64 162 1.0 2.0 0.00 0.00 0.00 68 1019.1
20260505052503 63 149 1.0 2.0 0.00 0.00 0.00 68 1019.0
20260505052003 64 152 0.0 2.0 0.00 0.00 0.00 67 1019.1
20260505051504 64 178 0.0 1.0 0.00 0.00 0.00 66 1019.0
20260505051004 64 182 0.0 1.0 0.00 0.00 0.00 68 1018.9
20260505050713 63 183 0.0 1.0 0.00 0.00 0.00 68 1018.7
20260505050216 62 182 0.0 1.0 0.00 0.00 0.00 70 1018.7
20260505041713 60 167 0.0 2.0 0.00 0.00 0.00 74 1018.4
20260505041216 60 146 0.0 1.0 0.00 0.00 0.00 74 1018.3
20260505040504 60 181 0.0 2.0 0.00 0.00 0.00 73 1018.4
20260505040005 60 188 1.0 2.0 0.00 0.00 0.00 73 1018.6
20260505035503 60 184 1.0 1.0 0.00 0.00 0.00 73 1018.5
20260505035003 61 171 0.0 1.0 0.00 0.00 0.00 72 1018.4
20260505034716 61 174 0.0 1.0 0.00 0.00 0.00 72 1018.5
20260505034003 61 188 0.0 1.0 0.00 0.00 0.00 71 1018.2
20260505033504 61 192 0.0 1.0 0.00 0.00 0.00 71 1018.3
20260505033003 61 191 0.0 1.0 0.00 0.00 0.00 71 1018.3
20260505032503 61 197 0.0 0.0 0.00 0.00 0.00 71 1018.2
20260505032004 61 197 0.0 0.0 0.00 0.00 0.00 71 1018.4
20260505031504 61 191 0.0 1.0 0.00 0.00 0.00 71 1018.2
20260505031003 61 197 0.0 1.0 0.00 0.00 0.00 71 1018.2
20260505030715 61 191 0.0 1.0 0.00 0.00 0.00 71 1018.2
20260505030003 61 174 0.0 1.0 0.00 0.00 0.00 71 1018.4
20260505025715 61 174 0.0 1.0 0.00 0.00 0.00 71 1018.3
20260505025004 61 173 0.0 1.0 0.00 0.00 0.00 71 1018.6
20260505024504 61 176 0.0 1.0 0.00 0.00 0.00 71 1018.4
20260505024004 61 176 0.0 1.0 0.00 0.00 0.00 71 1018.7
20260505023504 61 168 0.0 1.0 0.00 0.00 0.00 72 1018.7
20260505023004 61 170 0.0 1.0 0.00 0.00 0.00 72 1018.7
20260505022504 61 172 0.0 1.0 0.00 0.00 0.00 71 1018.7
20260505022004 61 168 0.0 1.0 0.00 0.00 0.00 72 1018.7
20260505021504 61 167 0.0 2.0 0.00 0.00 0.00 72 1018.8
20260505021003 61 172 0.0 2.0 0.00 0.00 0.00 71 1018.6
20260505020504 61 194 0.0 1.0 0.00 0.00 0.00 72 1018.7
20260505020003 61 188 0.0 1.0 0.00 0.00 0.00 71 1018.7
20260505015504 61 165 0.0 1.0 0.00 0.00 0.00 71 1018.7
20260505015004 61 172 0.0 1.0 0.00 0.00 0.00 71 1018.7
20260505014717 61 177 0.0 1.0 0.00 0.00 0.00 71 1018.8
20260505014003 61 179 0.0 1.0 0.00 0.00 0.00 71 1018.8
20260505013504 61 181 0.0 1.0 0.00 0.00 0.00 71 1018.9
20260505013216 60 181 0.0 1.0 0.00 0.00 0.00 71 1018.9
20260505012714 60 175 0.0 1.0 0.00 0.00 0.00 72 1018.8
20260505012003 60 150 0.0 0.0 0.00 0.00 0.00 71 1018.8
20260505011503 60 188 0.0 3.0 0.00 0.00 0.00 71 1018.9
20260505011213 60 187 0.0 3.0 0.00 0.00 0.00 71 1018.9
20260505010504 61 175 0.0 1.0 0.00 0.00 0.00 71 1018.9
20260505010003 61 169 0.0 1.0 0.00 0.00 0.00 72 1019.0
20260505005504 61 175 0.0 1.0 0.00 0.00 0.00 72 1019.1
20260505005004 61 177 0.0 1.0 0.00 0.00 0.00 72 1019.1
20260505004503 61 206 0.0 1.0 0.00 0.00 0.00 71 1019.0
20260505004003 61 210 0.0 1.0 0.00 0.00 0.00 71 1019.0
20260505003714 61 210 0.0 1.0 0.00 0.00 0.00 72 1019.0
20260505003004 61 191 0.0 0.0 0.00 0.00 0.00 71 1019.2
20260505002714 61 191 0.0 1.0 0.00 0.00 0.00 71 1019.2
20260505002004 61 190 0.0 1.0 0.00 0.00 0.00 71 1019.1
20260505001503 61 0 0.0 0.0 0.00 0.00 0.00 70 1019.1
20260505001003 61 193 0.0 1.0 0.00 0.00 0.00 70 1019.2
20260505000504 61 193 0.0 1.0 0.00 0.00 0.00 70 1019.1
20260505000003 61 0 0.0 0.0 0.00 0.00 0.00 69 1019.2
20260504235503 61 180 0.0 0.0 0.00 0.00 0.00 69 1019.4
20260504235215 61 176 0.0 1.0 0.00 0.00 0.00 69 1019.3
20260504234504 62 173 0.0 1.0 0.00 0.00 0.00 69 1019.4
20260504234003 62 174 0.0 1.0 0.00 0.00 0.00 69 1019.3
20260504233714 62 173 0.0 1.0 0.00 0.00 0.00 69 1019.4
20260504233004 62 176 0.0 1.0 0.00 0.00 0.00 69 1019.6
20260504232504 62 177 0.0 1.0 0.00 0.00 0.00 69 1019.6
20260504232004 61 173 0.0 1.0 0.00 0.00 0.00 69 1019.7
20260504231504 61 0 0.0 0.0 0.00 0.00 0.00 69 1019.5
20260504230504 62 195 0.0 1.0 0.00 0.00 0.00 68 1019.7
20260504230003 62 0 0.0 0.0 0.00 0.00 0.00 68 1019.9
20260504225713 62 0 0.0 0.0 0.00 0.00 0.00 68 1019.6
20260504225003 62 181 0.0 0.0 0.00 0.00 0.00 68 1019.7
20260504224504 62 190 0.0 1.0 0.00 0.00 0.00 68 1019.8
20260504224003 62 181 0.0 1.0 0.00 0.00 0.00 67 1020.0
20260504223504 62 163 0.0 2.0 0.00 0.00 0.00 67 1020.0
20260504223004 62 142 0.0 2.0 0.00 0.00 0.00 68 1019.9
20260504222503 62 143 0.0 1.0 0.00 0.00 0.00 68 1020.1
20260504222214 62 146 0.0 1.0 0.00 0.00 0.00 68 1019.8
20260504221504 63 146 1.0 4.0 0.00 0.00 0.00 66 1020.1
20260504221003 63 134 1.0 4.0 0.00 0.00 0.00 66 1020.0
20260504220504 63 174 0.0 1.0 0.00 0.00 0.00 67 1020.2
20260504220005 63 178 0.0 1.0 0.00 0.00 0.00 66 1019.9
20260504215504 63 182 0.0 2.0 0.00 0.00 0.00 66 1020.0
20260504215004 64 184 0.0 2.0 0.00 0.00 0.00 65 1020.0
20260504214503 64 182 0.0 1.0 0.00 0.00 0.00 65 1020.1
20260504214004 64 204 0.0 1.0 0.00 0.00 0.00 64 1020.2
20260504213716 64 0 0.0 0.0 0.00 0.00 0.00 64 1020.2
20260504213003 64 0 0.0 0.0 0.00 0.00 0.00 64 1020.2
20260504212503 64 185 0.0 0.0 0.00 0.00 0.00 64 1020.2
20260504212004 64 185 0.0 0.0 0.00 0.00 0.00 64 1020.1
20260504211504 64 171 0.0 1.0 0.00 0.00 0.00 64 1019.9
20260504211003 64 155 0.0 1.0 0.00 0.00 0.00 65 1020.1
20260504210504 64 166 0.0 2.0 0.00 0.00 0.00 65 1020.0
20260504210004 64 176 0.0 2.0 0.00 0.00 0.00 64 1020.1
20260504205504 64 166 1.0 2.0 0.00 0.00 0.00 64 1020.2
20260504205004 64 147 1.0 4.0 0.00 0.00 0.00 64 1020.1
20260504204716 64 147 1.0 4.0 0.00 0.00 0.00 65 1020.2
20260504204003 64 151 1.0 3.0 0.00 0.00 0.00 64 1020.3
20260504203503 64 152 1.0 3.0 0.00 0.00 0.00 64 1020.2
20260504203003 64 153 1.0 3.0 0.00 0.00 0.00 63 1020.4
20260504202503 64 139 1.0 3.0 0.00 0.00 0.00 63 1020.3
20260504202003 64 132 1.0 3.0 0.00 0.00 0.00 63 1020.4
20260504201504 64 140 1.0 3.0 0.00 0.00 0.00 62 1020.4
20260504201216 64 147 1.0 2.0 0.00 0.00 0.00 62 1020.3
20260504200504 64 160 2.0 6.0 0.00 0.00 0.00 62 1020.4
20260504200004 64 174 1.0 3.0 0.00 0.00 0.00 61 1020.2
20260504195503 64 157 1.0 4.0 0.00 0.00 0.00 61 1020.4
20260504195004 65 140 1.0 4.0 0.00 0.00 0.00 61 1020.4
20260504194503 65 156 1.0 3.0 0.00 0.00 0.00 60 1020.3
20260504194004 65 155 1.0 4.0 0.00 0.00 0.00 60 1020.3
20260504193504 65 174 1.0 4.0 0.00 0.00 0.00 59 1020.3
20260504193004 65 168 1.0 2.0 0.00 0.00 0.00 59 1020.2
20260504192504 65 161 1.0 2.0 0.00 0.00 0.00 59 1020.1
20260504192004 66 166 1.0 2.0 0.00 0.00 0.00 59 1020.1
20260504191503 66 163 1.0 2.0 0.00 0.00 0.00 59 1020.1
20260504191005 66 166 1.0 2.0 0.00 0.00 0.00 59 1020.1
20260504190715 66 166 1.0 2.0 0.00 0.00 0.00 59 1019.9
20260504190003 66 164 1.0 2.0 0.00 0.00 0.00 58 1019.9
20260504185503 66 168 1.0 2.0 0.00 0.00 0.00 58 1019.9
20260504185003 66 158 1.0 3.0 0.00 0.00 0.00 58 1019.8
20260504184717 66 150 1.0 3.0 0.00 0.00 0.00 58 1020.0
20260504184003 67 166 1.0 2.0 0.00 0.00 0.00 57 1019.8
20260504183503 67 175 1.0 3.0 0.00 0.00 0.00 58 1019.8
20260504183004 67 179 1.0 4.0 0.00 0.00 0.00 57 1019.7
20260504182504 67 167 1.0 4.0 0.00 0.00 0.00 57 1019.7
20260504182004 67 151 1.0 2.0 0.00 0.00 0.00 57 1019.6
20260504181503 67 170 1.0 3.0 0.00 0.00 0.00 56 1019.5
20260504181004 68 175 1.0 3.0 0.00 0.00 0.00 56 1019.6
20260504180503 68 162 1.0 2.0 0.00 0.00 0.00 55 1019.6
20260504180004 68 160 1.0 3.0 0.00 0.00 0.00 55 1019.4
20260504175503 69 178 1.0 3.0 0.00 0.00 0.00 54 1019.2
20260504175003 69 185 1.0 3.0 0.00 0.00 0.00 53 1019.2
20260504174503 70 174 1.0 3.0 0.00 0.00 0.00 53 1019.2
20260504174003 70 188 1.0 3.0 0.00 0.00 0.00 52 1019.1
20260504173503 70 191 1.0 3.0 0.00 0.00 0.00 51 1019.0
20260504173003 71 195 0.0 1.0 0.00 0.00 0.00 49 1019.1
20260504172503 71 186 0.0 1.0 0.00 0.00 0.00 47 1018.9
20260504172003 71 158 0.0 1.0 0.00 0.00 0.00 48 1018.8
20260504171504 71 170 0.0 1.0 0.00 0.00 0.00 46 1018.7
20260504171004 71 164 0.0 2.0 0.00 0.00 0.00 45 1018.9
20260504170504 71 162 0.0 2.0 0.00 0.00 0.00 43 1018.9